[[{"header":{"parameterUnit":"m.s-1","parameterCategory":1,"la1":30.2991,"la2":30.254,"lo1":-89.0895,"lo2":-89.0444,"dy":0.0017,"dx":0.0017,"nx":28,"ny":28,"refTime":"2024-05-20T03:00:00:Z","depth":0,"parameterNumber":2,"parameterNumberName":"U-component_of_WINDS"},"data":[0,0,0,0,0,0,0,0,0,0,0,0,0,0,0,0,0,0,0,0,0,0,0,0,0,0,0,0,0,0,0,0,0,0,0,0,0,0,0,0,0,0,0,0,0,0,0,0,0,0,0,0,0,0,0,0,0,0,-3.1619,-3.162,0,-3.1648,-3.1648,-3.1649,-3.1598,-3.1597,-3.1595,-3.1593,-3.1624,-3.1626,-3.1628,0,0,0,0,0,0,0,0,0,0,0,0,0,-3.1523,-3.1525,-3.1619,-3.162,-3.162,-3.1648,-3.1648,-3.1649,-3.1599,-3.1597,-3.1595,-3.1593,-3.1623,-3.1626,-3.1629,0,0,0,0,0,0,0,0,0,0,0,0,0,-3.156,-3.1526,-3.1619,-3.1598,-3.1597,-3.1648,-3.1649,-3.1649,-3.1599,-3.1597,-3.1594,-3.1592,-3.1622,-3.1626,-3.1629,-3.1702,0,0,-3.164,-3.1642,0,0,0,0,0,0,0,0,-3.1558,-3.1563,-3.1601,-3.16,-3.1598,-3.1617,-3.1626,-3.1667,-3.16,-3.1598,-3.1593,-3.159,-3.1624,-3.1627,-3.1638,-3.1704,-3.1705,-3.164,-3.1643,-3.1644,-3.1645,0,0,0,0,0,0,0,-3.1555,-3.1562,-3.1631,-3.1602,-3.16,-3.1588,-3.1591,-3.1633,-3.1625,-3.1598,-3.1595,-3.1599,-3.1622,-3.1635,-3.1638,-3.1705,-3.164,-3.1643,-3.1646,-3.1647,-3.1834,-3.1837,0,0,0,0,0,0,-3.1555,-3.156,-3.163,-3.1632,-3.1571,-3.1592,-3.1595,-3.1614,-3.1624,-3.1624,-3.1601,-3.1596,-3.163,-3.1634,-3.1639,-3.1725,-3.1644,-3.1647,-3.1649,-3.1831,-3.1835,-3.1838,0,0,0,0,0,0,-3.1553,-3.1562,-3.1629,-3.1595,-3.1603,-3.1597,-3.1618,-3.1616,-3.1628,-3.1626,-3.1625,-3.1615,-3.1628,-3.1634,-3.1687,-3.1726,-3.1649,-3.1652,-3.1828,-3.1832,-3.1836,-3.1898,0,0,0,0,0,0,-3.1551,-3.1562,-3.1588,-3.1596,-3.1605,-3.1675,-3.162,-3.1618,-3.1634,-3.1628,-3.1639,-3.1638,-3.1626,-3.1682,-3.1691,-3.1729,-3.1655,-3.1824,-3.183,-3.1835,-3.1893,-3.1904,-3.1914,0,0,0,0,0,-3.1548,-3.1605,-3.159,-3.1599,-3.1638,-3.1678,-3.1682,-3.1667,-3.1637,-3.1664,-3.1664,-3.1638,-3.1721,-3.1688,-3.1697,-3.1737,-3.1822,-3.1828,-3.1834,-3.1888,-3.1902,-3.1914,0,0,0,0,0,0,-3.1601,-3.1605,-3.1589,-3.165,-3.1664,-3.1669,-3.1702,-3.1683,-3.1705,-3.1699,-3.168,-3.1683,-3.174,-3.1745,-3.1708,-3.181,-3.1766,-3.1775,-3.1804,-3.1817,-3.1828,-3.1824,-3.1658,0,0,0,0,0,-3.162,-3.1652,-3.1654,-3.1707,-3.1715,-3.1708,-3.1725,-3.1713,-3.1726,-3.1732,-3.1735,-3.175,-3.178,-3.1799,-3.1826,-3.1895,-3.1896,-3.1927,-3.1938,-3.1947,-3.1953,-3.199,-3.2004,-3.1859,-3.1858,-3.1858,0,0,-3.1659,-3.1666,-3.1686,-3.1718,-3.1728,-3.1761,-3.1713,-3.175,-3.1775,-3.1738,-3.1787,-3.1791,-3.1807,-3.1868,-3.1895,-3.1873,-3.1995,-3.1955,-3.1962,-3.1963,-3.1998,-3.2012,-3.2024,-3.1863,-3.1862,-3.1861,0,0,-3.1747,-3.1756,-3.1801,-3.1812,-3.1827,-3.1823,-3.1834,-3.1843,-3.1844,-3.1894,-3.1867,-3.1897,-3.1948,-3.196,-3.1973,-3.207,-3.2047,-3.208,-3.2134,-3.2171,-3.2182,-3.2192,-3.2226,-3.2238,-3.2087,-3.2088,-3.2088,0,-3.1794,-3.1843,-3.1827,-3.1867,-3.1882,-3.1851,-3.1898,-3.1909,-3.1933,-3.1944,-3.192,-3.1985,-3.1993,-3.2057,-3.2081,-3.2093,-3.2105,-3.2077,-3.2182,-3.2192,-3.2201,-3.2233,-3.2246,-3.2091,-3.2091,-3.2091,-3.209,0,-3.1899,-3.1934,-3.1969,-3.1993,-3.2012,-3.2055,-3.2048,-3.207,-3.2057,-3.2056,-3.2108,-3.2118,-3.2146,-3.2161,-3.2149,-3.2224,-3.221,-3.2185,-3.214,-3.2219,-3.2248,-3.226,-3.2097,-3.2095,-3.2094,-3.2093,0,0,-3.2018,-3.2035,-3.2048,-3.2058,-3.2074,-3.2101,-3.2144,-3.2172,-3.2192,-3.2211,-3.2246,-3.2291,-3.2268,-3.2283,-3.2273,-3.2305,-3.2381,-3.2275,-3.2275,-3.2293,-3.2464,-3.2482,-3.2496,-3.2367,-3.237,-3.2371,-3.2463,0,-3.2104,-3.2176,-3.2166,-3.2236,-3.2268,-3.2241,-3.2278,-3.2293,-3.2294,-3.2322,-3.2323,-3.2356,-3.2323,-3.2332,-3.2363,-3.2365,-3.2415,-3.2359,-3.2399,-3.2401,-3.2393,-3.2512,-3.253,-3.2615,-3.2474,-3.2476,-3.2478,0,-3.2214,-3.2236,-3.231,-3.2322,-3.2335,-3.2369,-3.2395,-3.2422,-3.2439,-3.2438,-3.2456,-3.2441,-3.2485,-3.2443,-3.2503,-3.2465,-3.2482,-3.2486,-3.2489,-3.249,-3.2442,-3.2514,-3.2642,-3.2654,-3.2496,-3.2495,-3.2493,0,-3.2291,-3.2341,-3.2391,-3.2401,-3.2418,-3.2442,-3.245,-3.2465,-3.2483,-3.2507,-3.2519,-3.2548,-3.2563,-3.2586,-3.2579,-3.2549,-3.2642,-3.2598,-3.2641,-3.2641,-3.2659,-3.2658,-3.2789,-3.2674,-3.2674,-3.2674,-3.2674,0,-3.2387,-3.2433,-3.2426,-3.2457,-3.2508,-3.2496,-3.2548,-3.2553,-3.2566,-3.2598,-3.2578,-3.2609,-3.2599,-3.263,-3.2626,-3.2676,-3.2684,-3.2684,-3.2682,-3.2684,-3.2684,-3.2693,-3.2686,-3.2677,-3.2676,-3.2676,-3.2675,0,-3.2481,-3.2478,-3.2531,-3.2543,-3.2547,-3.2584,-3.2595,-3.2625,-3.2625,-3.2666,-3.2675,-3.2677,-3.2712,-3.2709,-3.2748,-3.2745,-3.2808,-3.28,-3.2802,-3.2799,-3.2842,-3.2837,-3.2982,-3.3,-3.2875,-3.2876,-3.2877,0,-3.2541,-3.2575,-3.2592,-3.2612,-3.2621,-3.2654,-3.2673,-3.2665,-3.2685,-3.2709,-3.2736,-3.277,-3.2796,-3.2854,-3.2859,-3.289,-3.2881,-3.293,-3.2885,-3.2887,-3.288,-3.2877,-3.288,-3.2937,-3.2939,-3.294,-3.2941,0,-3.2648,-3.2645,-3.2673,-3.2702,-3.2725,-3.2747,-3.2767,-3.2785,-3.2778,-3.2803,-3.2839,-3.286,-3.2901,-3.2935,-3.2965,-3.2974,-3.2957,-3.2956,-3.2967,-3.2968,-3.2967,-3.2967,-3.2823,-3.2951,-3.295,-3.295,-3.2949,-3.2949,-3.2725,-3.2755,-3.2771,-3.2803,-3.2818,-3.2838,-3.2866,-3.2871,-3.2901,-3.2933,-3.2928,-3.2968,-3.2987,-3.3025,-3.3038,-3.307,-3.3053,-3.3069,-3.3073,-3.3077,-3.3081,-3.2965,-3.3076,-3.3076,-3.3075,-3.3075,-3.3075,0,-3.283,-3.2839,-3.287,-3.2898,-3.2924,-3.2907,-3.2929,-3.2952,-3.2988,-3.3006,-3.3033,-3.3075,-3.3109,-3.3118,-3.315,-3.3175,-3.3168,-3.3183,-3.318,-3.3183,-3.3095,-3.3082,-3.3188,-3.3188,-3.3188,-3.3188,-3.3188,-3.3188,-3.2887,-3.2936,-3.2936,-3.2993,-3.3003,-3.3042,-3.3056,-3.3075,-3.309,-3.3138,-3.3166,-3.3171,-3.3187,-3.3221,-3.3251,-3.3253,-3.3265,-3.3284,-3.3283,-3.32,-3.3189,-3.3178,-3.3165,-3.3287,-3.3287,-3.3367,-3.3368,-3.3368]},{"header":{"parameterUnit":"m.s-1","parameterCategory":1,"la1":30.2991,"la2":30.254,"lo1":-89.0895,"lo2":-89.0444,"dy":0.0017,"dx":0.0017,"nx":28,"ny":28,"refTime":"2024-05-20T03:00:00:Z","depth":0,"parameterNumber":3,"parameterNumberName":"V-component_of_WINDS"},"data":[0,0,0,0,0,0,0,0,0,0,0,0,0,0,0,0,0,0,0,0,0,0,0,0,0,0,0,0,0,0,0,0,0,0,0,0,0,0,0,0,0,0,0,0,0,0,0,0,0,0,0,0,0,0,0,0,0,0,2.7147,2.7148,0,2.7236,2.7237,2.7238,2.7344,2.7346,2.7347,2.7349,2.7435,2.7435,2.7436,0,0,0,0,0,0,0,0,0,0,0,0,0,2.7066,2.7067,2.7147,2.7148,2.7149,2.7236,2.7237,2.7238,2.7344,2.7346,2.7348,2.735,2.7434,2.7435,2.7436,0,0,0,0,0,0,0,0,0,0,0,0,0,2.7123,2.7068,2.7147,2.7213,2.7219,2.7235,2.7237,2.7238,2.7343,2.7346,2.7348,2.7351,2.7434,2.7435,2.7436,2.7393,0,0,2.744,2.744,0,0,0,0,0,0,0,0,2.7119,2.7125,2.7202,2.7208,2.7216,2.7282,2.724,2.729,2.7343,2.7296,2.7349,2.7352,2.7381,2.7387,2.7398,2.7397,2.7401,2.744,2.744,2.7441,2.7441,0,0,0,0,0,0,0,2.7115,2.7122,2.7182,2.7203,2.7211,2.7237,2.7247,2.725,2.7323,2.73,2.7308,2.7318,2.7386,2.7397,2.7401,2.7402,2.744,2.7441,2.7441,2.7442,2.7373,2.7371,0,0,0,0,0,0,2.7102,2.7118,2.7179,2.7185,2.7173,2.7236,2.7248,2.7258,2.7324,2.7336,2.7315,2.7322,2.7394,2.7399,2.7404,2.736,2.7441,2.7442,2.7443,2.7376,2.7373,2.737,0,0,0,0,0,0,2.71,2.7106,2.7176,2.7154,2.7165,2.7235,2.7245,2.7258,2.7269,2.7335,2.7348,2.7313,2.7396,2.7403,2.7396,2.7364,2.7442,2.7443,2.7379,2.7375,2.7371,2.7269,0,0,0,0,0,0,2.7097,2.7105,2.709,2.7153,2.7165,2.7166,2.7243,2.7258,2.7272,2.7281,2.7337,2.7348,2.7398,2.7394,2.7397,2.7367,2.7444,2.7382,2.7377,2.7372,2.7276,2.7262,2.7251,0,0,0,0,0,2.7094,2.7056,2.7089,2.7095,2.7148,2.7164,2.7172,2.7231,2.7269,2.7254,2.7297,2.7347,2.7367,2.7392,2.7397,2.7366,2.7384,2.7378,2.7373,2.7281,2.7265,2.7251,0,0,0,0,0,0,2.6985,2.7065,2.7102,2.7084,2.7117,2.7182,2.7165,2.7212,2.7233,2.7241,2.7313,2.7325,2.731,2.7338,2.7364,2.733,2.7383,2.7378,2.7312,2.7297,2.7285,2.7278,2.7445,0,0,0,0,0,2.696,2.6968,2.7037,2.7014,2.7029,2.7094,2.7103,2.7147,2.7183,2.7197,2.7239,2.7271,2.7285,2.7293,2.7309,2.7281,2.7294,2.7262,2.725,2.7239,2.7234,2.7222,2.7209,2.7351,2.7352,2.7352,0,0,2.6906,2.6951,2.6951,2.6993,2.7024,2.703,2.7105,2.7107,2.7112,2.7197,2.7194,2.7226,2.7267,2.7249,2.7244,2.7272,2.7198,2.7232,2.7223,2.7224,2.7215,2.7201,2.7189,2.7348,2.7348,2.7349,0,0,2.6811,2.6845,2.6831,2.6861,2.6908,2.6952,2.6948,2.7007,2.7033,2.7032,2.7096,2.7102,2.7124,2.7151,2.7168,2.7086,2.7133,2.7089,2.7024,2.7012,2.7001,2.6991,2.6962,2.6951,2.7084,2.7083,2.7083,0,2.6738,2.675,2.6817,2.6817,2.6834,2.6913,2.6899,2.6924,2.6972,2.6982,2.7014,2.7045,2.7078,2.7069,2.7049,2.706,2.7058,2.7083,2.6997,2.6988,2.698,2.6954,2.6943,2.7078,2.7078,2.7079,2.708,0,2.6659,2.6666,2.6649,2.6697,2.6712,2.6704,2.6769,2.6776,2.6819,2.6859,2.6858,2.69,2.6928,2.6929,2.6969,2.6926,2.6942,2.6984,2.7039,2.696,2.6936,2.6927,2.707,2.7072,2.7073,2.7075,0,0,2.6496,2.6583,2.6575,2.6599,2.6657,2.6664,2.666,2.6689,2.6694,2.6725,2.6724,2.6742,2.6782,2.6801,2.6846,2.6835,2.6768,2.6879,2.6881,2.6857,2.6724,2.6692,2.6679,2.68,2.6799,2.6797,2.6721,0,2.6412,2.6412,2.6473,2.6456,2.6465,2.6541,2.6538,2.6573,2.6611,2.6623,2.6665,2.6678,2.673,2.6742,2.6735,2.6778,2.6742,2.6784,2.6799,2.6799,2.6787,2.6667,2.6632,2.6558,2.6712,2.671,2.6709,0,2.6314,2.6342,2.6326,2.6387,2.6393,2.6389,2.6422,2.6432,2.6474,2.6502,2.6524,2.6576,2.6576,2.6629,2.663,2.6657,2.6667,2.669,2.6688,2.6692,2.6749,2.6667,2.6535,2.6524,2.6695,2.6696,2.6697,0,2.6198,2.6232,2.6227,2.6245,2.6315,2.6311,2.634,2.6384,2.6398,2.6426,2.6436,2.6462,2.6477,2.6496,2.6553,2.6586,2.6548,2.6605,2.6571,2.657,2.6559,2.6559,2.6427,2.6565,2.6565,2.6566,2.6566,0,2.6098,2.6085,2.6176,2.6173,2.6162,2.6232,2.6218,2.6254,2.6293,2.6298,2.6366,2.6369,2.6444,2.6456,2.65,2.6495,2.6501,2.6524,2.6536,2.6518,2.6515,2.6525,2.6531,2.6563,2.6563,2.6564,2.6564,0,2.5966,2.6026,2.6027,2.6095,2.6111,2.61,2.6157,2.6157,2.6201,2.6206,2.6212,2.6279,2.6296,2.6356,2.6387,2.6417,2.6398,2.6421,2.6384,2.6392,2.6355,2.6358,2.6225,2.6212,2.6357,2.6356,2.6355,0,2.5898,2.589,2.5958,2.5967,2.5994,2.6008,2.6023,2.6092,2.6106,2.6154,2.6147,2.6171,2.6193,2.6217,2.6268,2.6292,2.6316,2.6268,2.632,2.6303,2.6316,2.6316,2.6316,2.6257,2.6255,2.6253,2.6252,0,2.5771,2.5802,2.5823,2.5854,2.5871,2.5899,2.593,2.5934,2.6011,2.6022,2.6042,2.6059,2.6093,2.6115,2.6148,2.6177,2.6227,2.6235,2.6229,2.621,2.619,2.6201,2.6354,2.6238,2.6239,2.624,2.6241,2.6242,2.567,2.5667,2.5715,2.5736,2.5768,2.5796,2.58,2.5845,2.5863,2.5897,2.5937,2.5952,2.5995,2.6045,2.607,2.6083,2.611,2.61,2.6098,2.6094,2.6086,2.6188,2.6089,2.6089,2.609,2.609,2.609,0,2.5547,2.5582,2.5601,2.5644,2.5661,2.5709,2.5747,2.5757,2.577,2.5807,2.5828,2.5851,2.5873,2.5927,2.5954,2.5954,2.5977,2.5959,2.5959,2.5965,2.606,2.6063,2.5939,2.5939,2.5939,2.5939,2.5939,2.5939,2.5485,2.5484,2.5521,2.5536,2.5572,2.5589,2.5606,2.5633,2.5663,2.5686,2.5706,2.5741,2.5785,2.5816,2.5839,2.5854,2.5861,2.5835,2.5857,2.5944,2.5958,2.5972,2.5976,2.5835,2.5835,2.5762,2.5761,2.5761]}]]